アトラス彗星

C/2019 E3 ( ATLAS )

English version
Home page
Updated on August 30, 2025

---------------------------------------------------------------------

・ プロフィール

発見日 2019年3月5日
発見光度 18.4等
発見者 Asteroid Terrestrial-Impact Last Alert System (ATLAS) search program

・ 写真集

・ 軌道要素

Epoch 2025 May 5.0 TT = JDT 2460800.5
T 2023 Nov. 15.60802 TT                                 Pike
q  10.3132431            (2000.0)            P               Q
z  +0.0001865      Peri.  280.71799     +0.15977853     +0.96221133
 +/-0.0000003      Node   347.19754     +0.26400280     -0.25688454
e   0.9980765      Incl.   84.31353     -0.95119574     +0.09033101
From 984 observations 2012 Mar. 19-2025 Jan. 17, mean residual 0".6.

・ 星図

・ 光度変化

        m1 = 1.5 + 5 logΔ + 10.0 log r

---------------------------------------------------------------------

軌道要素はM.P.E.C. 2025-C143に掲載されたものです。
星図はステラナビゲータ Ver.10 (アストロアーツ) で作成したものです。
光度グラフはComet for Windowsで作成したものです。

---------------------------------------------------------------------

Copyright(C) Seiichi Yoshida (comet@aerith.net). All rights reserved.